Terminal Aerodrome Forecast
Issued by NWS Twin Cities, MN

Home | Current Version | Previous Version | Text Only | Print | Product List | Glossary Off
Versions: 1 2 3 4 5 6 7 8 9 10 11 12 13 14 15

000
FTUS43 KMPX 261527 AAB
TAFEAU
TAF AMD
KEAU 261527Z 2615/2712 31012G20KT P6SM BKN035
     FM262300 32009KT P6SM BKN040
     FM270400 35004KT P6SM SKC=

USA.gov is the U.S. government's official web portal to all federal, state and local government web resources and services.